Meteopurmerend
purmerend
Purmerend - Baaienwijk



My webcam  My webcam


Onweer radar Meer informatie blitzortung!


Regen radar Meer informatie rain snow radar


Bezoek onze andere website:

CandyAppleRed WebdesignWebdesign Purmerend Candy Apple Red

MeteopurmerendBlog

Template documentation
and downloads



Het weer levert geen direct gevaar op.    Er zijn geen waarschuwingen afgegeven.

15 daagse weersverwachting Vernier (CH)

  • Overzicht
  • Per uur
  • 15 dagen
  • Extra
  • Vergelijk
  • Kaarten
  • Dagkaart
  • Meer »
  • Info
  • Statistieken
  • Directe link
    Temp 6h Neerslag Wind  
 07:22     19:36    Daglengte: 12:14 Vandaag
08:00
16°
 
1
14:00
23°
 
1
20:00
19°
 
2
 07:23     19:34    Daglengte: 12:11 Morgen
02:00
17°
5.6 mm
1
08:00
16°
7.4 mm
1
14:00
21°
 
2
20:00
19°
1.2 mm
1
 07:25     19:32    Daglengte: 12:07 Dinsdag 22 Sep
02:00
15°
 
1
08:00
14°
 
1
14:00
21°
2.6 mm
3
warningclass
20:00
16°
10.7 mm
2
 07:26     19:30    Daglengte: 12:04 Woensdag 23 Sep
02:00
15°
 
2
Locatie info
Region: Genf
Latitude: 46.2124°N
Longitude: 6.0805°E
440 masl
Postcode: 1214
Temp/Neerslag /Baro Onweer/Dauwpunt
    Temp Baro 1h Neerslag Dauwpunt Wind UV Bewolking  
 07:22     19:36    Daglengte: 12:14 Vandaag
07:00
16°
1014.3 hPa
23%
14.0°
1
Windvlaag: 0.3 m/s
63%
08:00
16°
1014.5 hPa
23%
14.0°
1
Windvlaag: 0.6 m/s
48%
09:00
18°
1014.8 hPa
22%
14.3°
1
Windvlaag: 0.9 m/s
52%
10:00
19°
1015.0 hPa
20%
14.7°
1
Windvlaag: 0.9 m/s
42%
11:00
20°
1015.0 hPa
25%
15.1°
1
Windvlaag: 0.2 m/s
45%
12:00
21°
1014.8 hPa
35%
15.4°
1
Windvlaag: -1.2 m/s
54%
13:00
22°
1014.4 hPa
78%
14.8°
1
Windvlaag: -1 m/s
45%
14:00
23°
1013.9 hPa
44%
14.5°
1
Windvlaag: -1.3 m/s
51%
15:00
23°
1013.7 hPa
82%
14.7°
1
Windvlaag: -0.6 m/s
59%
16:00
23°
1013.4 hPa
82%
15.3°
1
Windvlaag: -0.3 m/s
74%
17:00
21°
1013.4 hPa
82%
15.3°
1
Windvlaag: 0.5 m/s
78%
18:00
21°
1013.4 hPa
81%
15.1°
2
Windvlaag: 1.8 m/s
74% warningclass
19:00
20°
1013.8 hPa
73%
15.6°
2
Windvlaag: 2.2 m/s
78%
20:00
19°
1014.3 hPa
62%
15.6°
2
Windvlaag: 2.1 m/s
80%
21:00
18°
1014.7 hPa
30%
15.6°
2
Windvlaag: 1.9 m/s
78%
22:00
18°
1015.0 hPa 1.0 mm
37%
15.5°
1
Windvlaag: 1.6 m/s
71%
23:00
17°
1015.2 hPa
78%
15.1°
1
Windvlaag: 1 m/s
73%
 07:23     19:34    Daglengte: 12:11 Morgen
00:00
17°
1015.3 hPa 1.4 mm
80%
15.1°
1
Windvlaag: 1.1 m/s
73% warningclass
01:00
17°
1015.3 hPa 1.9 mm
81%
15.2°
1
Windvlaag: 0.8 m/s
72% warningclass
02:00
17°
1015.2 hPa 1.3 mm
75%
14.8°
1
Windvlaag: 0.7 m/s
67%
03:00
16°
1015.2 hPa 1.2 mm
74%
15.0°
1
Windvlaag: 0.8 m/s
63% warningclass
04:00
16°
1015.1 hPa 1.1 mm
75%
14.6°
1
Windvlaag: 0.7 m/s
71% warningclass
05:00
16°
1014.9 hPa 1.3 mm
75%
14.5°
1
Windvlaag: 0.8 m/s
74% warningclass
06:00
16°
1015.0 hPa 1.3 mm
76%
14.3°
1
Windvlaag: 0.8 m/s
76% warningclass
07:00
15°
1015.3 hPa 1.4 mm
73%
14.0°
1
Windvlaag: 0.9 m/s
78% warningclass
08:00
16°
1015.7 hPa 1.2 mm
71%
13.9°
1
Windvlaag: 0.7 m/s
66%
09:00
17°
1016.0 hPa
72%
14.5°
1
Windvlaag: 0.5 m/s
45%
10:00
18°
1016.0 hPa
38%
15.2°
1
Windvlaag: 0.4 m/s
41%
11:00
19°
1016.0 hPa
41%
15.3°
1
Windvlaag: 1 m/s
49%
12:00
20°
1015.7 hPa
45%
15.3°
2
Windvlaag: 1.3 m/s
52%
13:00
21°
1015.3 hPa
42%
14.5°
2
Windvlaag: 1.5 m/s
74%
14:00
21°
1014.9 hPa
42%
14.5°
2
Windvlaag: 1.7 m/s
58%
15:00
22°
1014.4 hPa
41%
14.2°
2
Windvlaag: 1.7 m/s
45%
16:00
22°
1014.1 hPa
82%
14.1°
2
Windvlaag: 1.3 m/s
51%
17:00
22°
1014.0 hPa 1.2 mm
82%
14.2°
2
Windvlaag: 2.4 m/s
55%
18:00
21°
1014.2 hPa
81%
14.3°
2
Windvlaag: 3 m/s
58%
19:00
20°
1014.5 hPa
37%
15.6°
2
Windvlaag: 2.2 m/s
58%
20:00
19°
1014.7 hPa
29%
14.9°
1
Windvlaag: 1.7 m/s
58%
21:00
19°
1014.9 hPa
21%
14.8°
1
Windvlaag: 1.3 m/s
62%
22:00
17°
1015.1 hPa
17%
14.4°
1
Windvlaag: 1 m/s
58%
23:00
16°
1015.1 hPa
21%
13.9°
1
Windvlaag: 0.6 m/s
63%
 07:25     19:32    Daglengte: 12:07 Dinsdag 22 Sep
00:00
16°
1015.1 hPa
22%
13.7°
1
Windvlaag: 0.8 m/s
57%
01:00
15°
1015.0 hPa
22%
13.4°
1
Windvlaag: 1 m/s
51%
02:00
15°
1014.8 hPa
25%
13.2°
1
Windvlaag: 1 m/s
46%
03:00
14°
1014.7 hPa
25%
13.1°
1
Windvlaag: 1.2 m/s
43%
04:00
14°
1014.6 hPa
21%
13.3°
1
Windvlaag: 1.4 m/s
32%
05:00
14°
1014.3 hPa
21%
12.9°
1
Windvlaag: 1.4 m/s
31%
06:00
14°
1014.3 hPa
21%
12.9°
1
Windvlaag: 1.3 m/s
50%
07:00
14°
1014.1 hPa
21%
12.9°
1
Windvlaag: 1.1 m/s
51%
08:00
14°
1014.2 hPa
21%
13.1°
1
Windvlaag: 0.6 m/s
49%
09:00
16°
1014.1 hPa
21%
13.5°
1
Windvlaag: 0.7 m/s
34%
10:00
17°
1013.9 hPa
21%
14.1°
1
Windvlaag: 0.8 m/s
36%
11:00
19°
1013.7 hPa
32%
14.5°
2
Windvlaag: 0.9 m/s
57%
12:00
20°
1013.3 hPa 1.6 mm
89%
14.6°
2
Windvlaag: 0.9 m/s
68%
13:00
20°
1012.6 hPa
100%
14.6°
3
Windvlaag: 0.8 m/s
65%
14:00
21°
1012.1 hPa 1.0 mm
100%
14.3°
3
Windvlaag: 0.9 m/s
70% warningclass
15:00
20°
1011.7 hPa 1.6 mm
100%
14.4°
4
Windvlaag: 0.8 m/s
74%
16:00
20°
1011.1 hPa 1.7 mm
100%
14.3°
3
Windvlaag: 0.9 m/s
73% warningclass
17:00
20°
1011.0 hPa 2.7 mm
60%
14.2°
3
Windvlaag: 1 m/s
83% warningclass
18:00
19°
1010.7 hPa 1.8 mm
96%
14.7°
3
Windvlaag: 1.2 m/s
86% warningclass
19:00
18°
1010.8 hPa 3.0 mm
41%
14.1°
2
Windvlaag: 1.2 m/s
86%
20:00
16°
1011.1 hPa
29%
14.0°
2
Windvlaag: 1.4 m/s
61%
21:00
16°
1011.2 hPa
29%
13.9°
2
Windvlaag: 9.6 m/s
82%
22:00
16°
1011.2 hPa
39%
13.8°
1
Windvlaag: 5.6 m/s
73%
23:00
16°
1011.2 hPa
33%
13.7°
1
Windvlaag: 8.9 m/s
74%
 07:26     19:30    Daglengte: 12:04 Woensdag 23 Sep
00:00
16°
1011.1 hPa
35%
13.7°
2
Windvlaag: 12 m/s
86%
01:00
15°
1011.0 hPa
30%
13.7°
2
Windvlaag: 11 m/s
93%
02:00
15°
1011.0 hPa
39%
13.5°
2
Windvlaag: 1.3 m/s
83%
03:00
15°
1010.6 hPa 17.1 mm
100%
13.6°
2
Windvlaag: 7.8 m/s
94%
04:00
15°
1010.4 hPa 21.8 mm
100%
13.6°
2
Windvlaag: 9.3 m/s
95%
05:00
15°
1010.3 hPa 25.0 mm
100%
13.6°
2
Windvlaag: 9.4 m/s
91%
06:00
15°
1010.2 hPa 25.4 mm
100%
13.6°
2
Windvlaag: 8.1 m/s
88%
Temp/Neerslag /Baro Onweer/Dauwpunt
    Temp Baro Neerslag Dauwpunt Wind Bewolking  
 07:22     19:36    Daglengte: 12:14 Vandaag
08:00
16°
1014.5 hPa   14.0°
1
48%
11:00
20°
1015.0 hPa   15.1°
1
45%
14:00
23°
1013.9 hPa   14.5°
1
51%
17:00
21°
1013.4 hPa   15.3°
1
78%
20:00
19°
1014.3 hPa   15.6°
2
80%
23:00
17°
1015.2 hPa 1.0 mm 15.1°
1
73%
 07:23     19:34    Daglengte: 12:11 Morgen
02:00
17°
1015.2 hPa 4.6 mm 14.8°
1
67%
05:00
16°
1014.9 hPa 3.5 mm 14.5°
1
74% warningclass
08:00
16°
1015.7 hPa 3.9 mm 13.9°
1
66%
11:00
19°
1016.0 hPa   15.3°
1
49%
14:00
21°
1014.9 hPa   14.5°
2
58%
17:00
22°
1014.0 hPa 1.2 mm 14.2°
2
55%
20:00
19°
1014.7 hPa   14.9°
1
58%
23:00
16°
1015.1 hPa   13.9°
1
63%
 07:25     19:32    Daglengte: 12:07 Dinsdag 22 Sep
02:00
15°
1014.8 hPa   13.2°
1
46%
05:00
14°
1014.3 hPa   12.9°
1
31%
08:00
14°
1014.2 hPa   13.1°
1
49%
11:00
19°
1013.7 hPa   14.5°
2
57%
14:00
21°
1012.1 hPa 2.6 mm 14.3°
3
70% warningclass
17:00
20°
1011.0 hPa 5.9 mm 14.2°
3
83% warningclass
20:00
16°
1011.1 hPa 4.8 mm 14.0°
2
61%
23:00
16°
1011.2 hPa   13.7°
1
74%
 07:26     19:30    Daglengte: 12:04 Woensdag 23 Sep
02:00
15°
1011.0 hPa   13.5°
2
83%
05:00
15°
1010.3 hPa 63.8 mm 13.6°
2
91%
08:00
15°
1010.1 hPa 76.7 mm 13.5°
2
92%
11:00
18°
1009.3 hPa 28.5 mm 13.7°
3
60%
14:00
20°
1008.7 hPa 28.7 mm 13.4°
4
45%
17:00
18°
1007.9 hPa 29.0 mm 12.7°
3
33%
20:00
16°
1007.2 hPa 29.1 mm 11.8°
2
20%
23:00
15°
1007.9 hPa 31.7 mm 12.6°
2
51%
 07:27     19:28    Daglengte: 12:01 Donderdag 24 Sep
02:00
15°
1008.3 hPa 34.5 mm 13.3°
2
81%
05:00
14°
1009.5 hPa 35.9 mm 11.9°
2
84%
08:00
13°
1010.7 hPa 38.7 mm 10.5°
3
87%
11:00
14°
1010.2 hPa 41.3 mm 9.3°
3
55%
14:00
16°
1009.8 hPa 42.7 mm 7.4°
3
24%
17:00
14°
1008.5 hPa 46.2 mm 7.7°
2
51%
20:00
13°
1007.3 hPa 50.3 mm 7.9°
2
79%
23:00
12°
1008.0 hPa 50.8 mm 7.7°
2
85%
 07:29     19:26    Daglengte: 11:57 Vrijdag 25 Sep
02:00
12°
1008.6 hPa 53.9 mm 7.5°
2
90%
05:00
10°
1008.5 hPa 55.8 mm 6.4°
2
84%
08:00
Voelt als: 7.3°
1008.6 hPa 60.8 mm 5.4°
2
77%
11:00
10°
Voelt als: 8.1°
1009.3 hPa 62.6 mm 4.9°
3
58%
14:00
11°
1009.9 hPa 66.2 mm 4.2°
3
38%
17:00
Voelt als: 8.2°
1010.7 hPa 67.9 mm 4.6°
3
64%
20:00
Voelt als: 7.3°
1011.6 hPa 68.8 mm 4.9°
2
90%
23:00
Voelt als: 6.4°
1012.2 hPa 69.6 mm 4.3°
2
86%
 07:30     19:24    Daglengte: 11:54 Zaterdag 26 Sep
02:00
Voelt als: 5.6°
1012.6 hPa 72.3 mm 3.8°
2
82%
05:00
Voelt als: 5.5°
1012.5 hPa 76.4 mm 3.6°
2
55%
08:00
Voelt als: 5.7°
1012.5 hPa 79.8 mm 3.5°
1
27%
11:00
Voelt als: 6.7°
1012.0 hPa 83.9 mm 3.4°
2
46%
14:00
10°
Voelt als: 8.2°
1011.5 hPa 90.1 mm 3.0°
3
65%
17:00
Voelt als: 8.0°
1012.7 hPa 97.2 mm 3.8°
2
76%
20:00
1014.0 hPa 99.2 mm 4.4°
1
88%
23:00
Voelt als: 7.7°
1015.0 hPa 99.9 mm 5.0°
1
83%
 07:31     19:22    Daglengte: 11:51 Zondag 27 Sep
02:00
Voelt als: 7.4°
1015.9 hPa 101.3 mm 5.7°
1
79%
05:00
Voelt als: 6.7°
1016.4 hPa   5.2°
1
54%
08:00
Voelt als: 6.2°
1017.1 hPa 216.8 mm 4.8°
1
29%
14:00
12°
1017.1 hPa 228.6 mm 3.0°
2
19%
20:00
11°
1016.8 hPa 233.0 mm 1.4°
1
78%
 07:32     19:20    Daglengte: 11:48 Maandag 28 Sep
02:00
10°
1018.1 hPa 234.2 mm 3.2°
1
91%
08:00
10°
Voelt als: 9.4°
1018.6 hPa 234.4 mm 4.5°
1
74%
14:00
15°
1018.3 hPa 234.7 mm 7.1°
3
51%
20:00
12°
1017.9 hPa 236.1 mm 8.9°
2
46%
 07:34     19:18    Daglengte: 11:44 Dinsdag 29 Sep
02:00
10°
Voelt als: 9.3°
1019.6 hPa 236.4 mm 8.2°
1
31%
08:00
10°
1020.0 hPa 236.4 mm 7.9°
1
62%
14:00
10°
Voelt als: 9.6°
1023.1 hPa 239.3 mm 8.9°
1
1%
20:00
1023.2 hPa 242.2 mm 8.1°
1
1%
 07:35     19:16    Daglengte: 11:41 Woensdag 30 Sep
02:00
Voelt als: 5.4°
1023.0 hPa 0.5 mm 4.6°
1
27%
08:00
Voelt als: 5.1°
1022.3 hPa 0.5 mm 3.7°
1
32%
14:00
15°
1020.0 hPa 0.4 mm 8.4°
1
34%
20:00
10°
Voelt als: 9.7°
1020.3 hPa 0.8 mm 7.7°
1
38%
 07:36     19:14    Daglengte: 11:38 Donderdag 01 Okt
02:00
Voelt als: 6.9°
1020.4 hPa 0.6 mm 5.5°
1
38%
08:00
1019.8 hPa 0.6 mm 4.3°
1
34%
14:00
16°
1018.0 hPa 0.7 mm 8.2°
2
31%
20:00
Voelt als: 8.2°
1018.8 hPa 0.6 mm 6.5°
1
38%
 07:38     19:12    Daglengte: 11:34 Vrijdag 02 Okt
02:00
Voelt als: 5.8°
1019.5 hPa   4.1°
1
25%
08:00
Voelt als: 4.9°
1019.1 hPa   3.2°
1
21%
14:00
17°
1017.1 hPa   8.4°
1
25%
20:00
10°
Voelt als: 9.9°
1017.8 hPa 0.2 mm 7.9°
1
33%
 07:39     19:10    Daglengte: 11:31 Zaterdag 03 Okt
02:00
Voelt als: 7.7°
1018.6 hPa 0.2 mm 6.1°
1
30%
08:00
Voelt als: 7.6°
1018.4 hPa 0.3 mm 5.5°
1
31%
14:00
18°
1017.0 hPa 0.1 mm 10.1°
1
31%
20:00
11°
1017.6 hPa 0.2 mm 9.0°
0
32%
 07:40     19:09    Daglengte: 11:29 Zondag 04 Okt
02:00
Voelt als: 9.2°
1018.5 hPa 0.6 mm 7.3°
1
31%
08:00
1018.4 hPa 1.0 mm 6.4°
1
32%
14:00
18°
1017.4 hPa 0.6 mm 11.0°
1
32%
20:00
11°
1017.5 hPa 0.4 mm 9.2°
0
37%
 07:42     19:07    Daglengte: 11:25 Maandag 05 Okt
02:00
Voelt als: 9.0°
1018.3 hPa 0.1 mm 7.5°
1
26%
  CAPE Lifted Index Hail Supercell Tornado SRH 3km CL BTM PRES CL TOP PRES Swiss DWD icon SMHI TS
 07:22     19:36    Daglengte: 12:14 Vandaag
07:00 33 J/kg -0.5 K 0 % 0 % 0 % 0 m²/s² 0 0 -0.29 3
08:00 59 J/kg -1.0 K 0 % 0 % 0 % 0 m²/s² 0 0 -0.52 3
09:00 97 J/kg -0.8 K 0 % 0 % 0 % 0 m²/s² 0 0 -0.41 3
10:00 154 J/kg -0.7 K 0 % 0 % 0 % 0 m²/s² 0 0 -0.31 3
11:00 206 J/kg -0.9 K 0 % 0 % 0 % 0 m²/s² 0 0 -0.42 3
12:00 190 J/kg -1.0 K 0 % 0 % 0 % 0 m²/s² 0 0 -0.34 3
13:00 223 J/kg -1.2 K 0 % 0 % 0 % 0 m²/s² 0 0 -0.45 3
14:00 275 J/kg -1.4 K 0 % 0 % 0 % 0 m²/s² 0 0 -0.44 3
15:00 370 J/kg -1.5 K 0 % 0 % 0 % 0 m²/s² 0 0 -0.39 3
16:00 718 J/kg -3.2 K 0 % 0 % 0 % 0 m²/s² 0 0 -2.48 3
17:00 967 J/kg -3.6 K 0 % 0 % 0 % 0 m²/s² 0 0 -2.79 80
18:00 765 J/kg -3.1 K 0 % 0 % 0 % 0 m²/s² 0 0 -2.38 95
19:00 263 J/kg -1.9 K 0 % 0 % 0 % 0 m²/s² 0 0 -1.03 80
20:00 180 J/kg -1.0 K 0 % 0 % 0 % 0 m²/s² 0 0 -0.88 80
21:00 29 J/kg -0.1 K 0 % 0 % 0 % 0 m²/s² 0 0 0.62 3
22:00 36 J/kg -0.3 K 0 % 0 % 0 % 0 m²/s² 0 0 0.33 3
23:00 19 J/kg 0.1 K 0 % 0 % 0 % 0 m²/s² 0 0 0.58 80
 07:23     19:34    Daglengte: 12:11 Morgen
00:00 17 J/kg -0.1 K 0 % 0 % 0 % 0 m²/s² 0 0 0.53 95
01:00 2 J/kg -0.1 K 0 % 0 % 0 % 0 m²/s² 0 0 0.56 95
02:00 1 J/kg 0.1 K 0 % 0 % 0 % 0 m²/s² 0 0 0.67 80
03:00 0 J/kg 0.3 K 0 % 0 % 0 % 0 m²/s² 0 0 0.84 95
04:00 0 J/kg 0.6 K 0 % 0 % 0 % 0 m²/s² 0 0 1.17 95
05:00 0 J/kg 0.5 K 0 % 0 % 0 % 0 m²/s² 0 0 1.25 95
06:00 0 J/kg 0.5 K 0 % 0 % 0 % 0 m²/s² 0 0 1.31 95
07:00 0 J/kg 0.3 K 0 % 0 % 0 % 0 m²/s² 0 0 0.87 95
08:00 0 J/kg 0.5 K 0 % 0 % 0 % 0 m²/s² 0 0 1.16 80
09:00 0 J/kg 0.9 K 0 % 0 % 0 % 0 m²/s² 0 0 1.62 2
10:00 5 J/kg 0.5 K 0 % 0 % 0 % 0 m²/s² 0 0 1.25 2
11:00 11 J/kg 0.4 K 0 % 0 % 0 % 0 m²/s² 0 0 1.51 3
12:00 44 J/kg -0.3 K 0 % 0 % 0 % 0 m²/s² 0 0 0.81 3
13:00 129 J/kg -0.8 K 0 % 0 % 0 % 0 m²/s² 0 0 0.31 3
14:00 245 J/kg -1.2 K 0 % 0 % 0 % 0 m²/s² 0 0 0 3
15:00 472 J/kg -2.1 K 0 % 0 % 0 % 0 m²/s² 0 0 -0.57 3
16:00 658 J/kg -2.6 K 0 % 0 % 0 % 0 m²/s² 0 0 -1.4 3
17:00 588 J/kg -2.7 K 0 % 0 % 0 % 0 m²/s² 0 0 -1.71 80
18:00 27 J/kg -1.2 K 0 % 0 % 0 % 0 m²/s² 0 0 -0.21 3
19:00 78 J/kg -1.2 K 0 % 0 % 0 % 0 m²/s² 0 0 0.18 3
20:00 93 J/kg -1.1 K 0 % 0 % 0 % 0 m²/s² 0 0 -0.26 3
21:00 139 J/kg -1.3 K 0 % 0 % 0 % 0 m²/s² 0 0 -0.55 3
22:00 47 J/kg -0.2 K 0 % 0 % 0 % 0 m²/s² 0 0 0.79 3
23:00 23 J/kg -0.2 K 0 % 0 % 0 % 0 m²/s² 0 0 0.64 0
 07:25     19:32    Daglengte: 12:07 Dinsdag 22 Sep
00:00 0 J/kg -0.5 K 0 % 0 % 0 % 0 m²/s² 0 0 0.31 1
01:00 0 J/kg -0.4 K 0 % 0 % 0 % 0 m²/s² 0 0 0.23 45
02:00 0 J/kg -1.0 K 0 % 0 % 0 % 0 m²/s² 0 0 -0.55 45
03:00 0 J/kg -1.1 K 0 % 0 % 0 % 0 m²/s² 0 0 -0.74 45
04:00 0 J/kg -0.5 K 0 % 0 % 0 % 0 m²/s² 0 0 -0.08 45
05:00 3 J/kg -0.3 K 0 % 0 % 0 % 0 m²/s² 0 0 0.51 45
06:00 4 J/kg -0.5 K 0 % 0 % 0 % 0 m²/s² 0 0 0.16 45
07:00 11 J/kg -0.8 K 0 % 0 % 0 % 0 m²/s² 0 0 -0.38 45
08:00 14 J/kg -0.3 K 0 % 0 % 0 % 0 m²/s² 0 0 -0.12 2
09:00 22 J/kg -0.4 K 0 % 0 % 0 % 0 m²/s² 0 0 -0.01 3
10:00 82 J/kg -0.8 K 0 % 0 % 0 % 0 m²/s² 0 0 -0.44 3
11:00 279 J/kg -1.1 K 0 % 0 % 0 % 0 m²/s² 0 0 -0.59 3
12:00 541 J/kg -2.1 K 0 % 0 % 0 % 0 m²/s² 0 0 -1.59 3
13:00 674 J/kg -2.5 K 0 % 0 % 0 % 0 m²/s² 0 0 -2.02 3
14:00 856 J/kg -3.3 K 0 % 0 % 0 % 0 m²/s² 0 0 -2.34 80
15:00 993 J/kg -3.3 K 0 % 0 % 0 % 0 m²/s² 0 0 -1.98 80
16:00 1141 J/kg -4.4 K 0 % 0 % 0 % 0 m²/s² 0 0 -3.29 3
17:00 1176 J/kg -4.2 K 0 % 0 % 0 % 0 m²/s² 0 0 -3.21 3
18:00 806 J/kg -3.3 K 0 % 0 % 0 % 0 m²/s² 0 0 -2.91 3
19:00 3 J/kg -1.0 K 0 % 0 % 0 % 0 m²/s² 0 0 -0.61 3
20:00 1 J/kg -1.3 K 0 % 0 % 0 % 0 m²/s² 0 0 -0.73 2
21:00 0 J/kg 0.4 K 0 % 0 % 0 % 0 m²/s² 0 0 0.97 3
22:00 2 J/kg -0.1 K 0 % 0 % 0 % 0 m²/s² 0 0 0.2 3
23:00 2 J/kg -2.0 K 0 % 0 % 0 % 0 m²/s² 0 0 -1.52 3
 07:26     19:30    Daglengte: 12:04 Woensdag 23 Sep
00:00 0 J/kg 0.3 K 0 % 0 % 0 % 0 m²/s² 0 0 0.48 3
01:00 44 J/kg 0.1 K 0 % 0 % 0 % 0 m²/s² 0 0 0.37 3
02:00 8 J/kg -1.0 K 0 % 0 % 0 % 0 m²/s² 0 0 -0.82 3
03:00 31 J/kg -1.1 K 0 % 0 % 0 % 0 m²/s² 0 0 -1.1
04:00 289 J/kg -2.3 K 0 % 0 % 0 % 0 m²/s² 0 0 -2.27
05:00 304 J/kg -1.2 K 0 % 0 % 0 % 0 m²/s² 0 0 -0.81
06:00 258 J/kg -0.8 K 0 % 0 % 0 % 0 m²/s² 0 0 -0.32
Temp Baro Wind Neerslag
  EWN Forecast EWN WRFDA DWD ICON FMI HIRLAM MET Norway GFS
 07:22     19:36    Daglengte: 12:14 Vandaag
08:00 16.5° 1014.5 hPa 0.8 m/s 0.0 mm 17.7° 1013.9 hPa 1.4 m/s 0.1 mm 15.7° 1014.5 hPa 1.4 m/s -2.0 mm 15.6° 1015.0 hPa 0.4 m/s 0.0 mm 16.4° 1014.3 hPa 0.7 m/s 15.2° 1015.8 hPa 1.0 m/s
11:00 20.1° 1015.0 hPa 1.1 m/s 0.0 mm 21.7° 1014.2 hPa 0.2 m/s 0.1 mm 21.0° 1015.2 hPa 2.1 m/s 0.0 mm 20.4° 1014.1 hPa 1.5 m/s 0.0 mm 19.6° 1015.1 hPa 1.0 m/s 20.0° 1015.4 hPa 0.7 m/s
14:00 22.5° 1013.9 hPa 1.2 m/s 0.0 mm 24.5° 1012.9 hPa 0.7 m/s 0.1 mm 22.7° 1014.1 hPa 2.1 m/s 0.2 mm 24.1° 1012.7 hPa 1.7 m/s 0.0 mm 21.9° 1014.0 hPa 1.1 m/s 22.2° 1014.2 hPa 1.0 m/s
17:00 21.4° 1013.4 hPa 1.4 m/s 0.0 mm 21.0° 1012.4 hPa 3.6 m/s 2.2 mm 21.0° 1013.6 hPa 1.6 m/s 1.7 mm 24.8° 1012.3 hPa 2.3 m/s 0.0 mm 20.8° 1013.6 hPa 0.9 m/s 21.7° 1013.6 hPa 1.2 m/s
20:00 18.9° 1014.3 hPa 1.7 m/s 0.0 mm 18.8° 1014.6 hPa 2.9 m/s 11.0 mm 18.6° 1014.8 hPa 1.1 m/s 2.5 mm 21.0° 1013.1 hPa 1.8 m/s 0.0 mm 18.1° 1014.2 hPa 1.4 m/s 17.9° 1014.7 hPa 1.0 m/s
23:00 17.1° 1015.2 hPa 1.3 m/s 1.0 mm 16.7° 1014.0 hPa 1.5 m/s 12.3 mm 16.7° 1015.7 hPa 1.3 m/s 2.0 mm 19.2° 1014.1 hPa 1.7 m/s 0.0 mm 16.4° 1015.4 hPa 0.9 m/s 16.2° 1015.7 hPa 0.3 m/s
 07:23     19:34    Daglengte: 12:11 Morgen
02:00 16.5° 1015.2 hPa 1.2 m/s 4.6 mm 15.8° 1013.7 hPa 2.0 m/s 12.3 mm 16.4° 1015.8 hPa 0.5 m/s 5.5 mm 18.3° 1014.7 hPa 2.0 m/s 0.0 mm 15.6° 1015.5 hPa 1.1 m/s 15.1° 1015.7 hPa 0.5 m/s
05:00 15.9° 1014.9 hPa 1.1 m/s 3.5 mm 15.3° 1013.8 hPa 1.7 m/s 12.3 mm 15.9° 1015.1 hPa 0.8 m/s 3.6 mm 16.8° 1014.8 hPa 1.2 m/s 0.0 mm 15.1° 1015.1 hPa 1.0 m/s 14.5° 1015.8 hPa 0.6 m/s
08:00 15.8° 1015.7 hPa 0.9 m/s 3.9 mm 17.5° 1014.1 hPa 1.7 m/s 12.3 mm 15.4° 1016.0 hPa 0.8 m/s 2.1 mm 15.5° 1015.5 hPa 0.7 m/s 0.0 mm 15.5° 1015.8 hPa 0.9 m/s 14.9° 1016.0 hPa 0.5 m/s
11:00 19.2° 1016.0 hPa 1.3 m/s 0.0 mm 19.8° 1014.0 hPa 1.8 m/s 12.3 mm 19.3° 1016.2 hPa 1.1 m/s 0.1 mm 19.7° 1014.9 hPa 0.8 m/s 0.0 mm 18.7° 1016.2 hPa 1.3 m/s 19.7° 1016.1 hPa 1.0 m/s
14:00 21.4° 1014.9 hPa 2.2 m/s 0.0 mm 22.8° 1013.3 hPa 2.3 m/s 12.3 mm 21.2° 1015.2 hPa 2.2 m/s 0.0 mm 22.1° 1013.8 hPa 2.2 m/s 0.0 mm 20.7° 1015.0 hPa 1.6 m/s 23.6° 1014.9 hPa 1.1 m/s
17:00 21.7° 1014.0 hPa 2.3 m/s 1.2 mm 23.1° 1012.9 hPa 4.3 m/s 12.4 mm 21.2° 1014.5 hPa 2.2 m/s 0.3 mm 23.1° 1013.1 hPa 1.9 m/s 0.0 mm 21.0° 1014.0 hPa 1.7 m/s 23.1° 1014.4 hPa 0.5 m/s
20:00 19.3° 1014.7 hPa 1.3 m/s 0.0 mm 18.3° 1013.1 hPa 1.4 m/s 13.0 mm 18.3° 1015.4 hPa 1.1 m/s 0.0 mm 19.7° 1014.2 hPa 1.5 m/s 0.0 mm 19.4° 1014.7 hPa 0.5 m/s 17.1° 1014.7 hPa 0.6 m/s
23:00 16.0° 1015.1 hPa 1.2 m/s 0.0 mm 16.3° 1013.6 hPa 1.3 m/s 13.5 mm 15.4° 1015.7 hPa 0.9 m/s 0.0 mm 15.6° 1015.1 hPa 1.4 m/s 15.3° 1015.5 hPa 0.2 m/s
 07:25     19:32    Daglengte: 12:07 Dinsdag 22 Sep
02:00 14.7° 1014.8 hPa 1.4 m/s 0.0 mm 15.2° 1012.9 hPa 2.1 m/s 13.5 mm 14.0° 1015.8 hPa 0.9 m/s 0.0 mm 14.3° 1014.9 hPa 1.4 m/s 14.4° 1015.0 hPa 0.1 m/s
05:00 14.3° 1014.3 hPa 1.3 m/s 0.0 mm 14.2° 1011.7 hPa 2.4 m/s 13.5 mm 13.9° 1015.0 hPa 0.8 m/s 0.0 mm 13.8° 1014.5 hPa 1.2 m/s 13.9° 1014.0 hPa 0.3 m/s
08:00 14.3° 1014.2 hPa 0.9 m/s 0.0 mm 15.5° 1012.4 hPa 2.2 m/s 13.6 mm 13.9° 1014.5 hPa 0.8 m/s 0.0 mm 13.9° 1014.3 hPa 0.8 m/s 14.2° 1014.2 hPa 0.2 m/s
11:00 18.6° 1013.7 hPa 1.7 m/s 0.0 mm 18.6° 1011.4 hPa 3.3 m/s 13.6 mm 19.0° 1014.0 hPa 0.9 m/s 0.0 mm 18.5° 1013.9 hPa 1.6 m/s 20.1° 1013.1 hPa 0.5 m/s
14:00 21.0° 1012.1 hPa 2.6 m/s 2.6 mm 21.6° 1009.9 hPa 4.3 m/s 13.7 mm 21.1° 1012.4 hPa 2.7 m/s 0.3 mm 20.8° 1012.3 hPa 2.3 m/s 21.7° 1011.8 hPa 1.6 m/s
17:00 19.6° 1011.0 hPa 3.3 m/s 5.9 mm 21.0° 1008.5 hPa 5.2 m/s 13.7 mm 20.1° 1011.1 hPa 3.3 m/s 0.5 mm 19.0° 1011.4 hPa 2.9 m/s 18.8° 1010.3 hPa 3.4 m/s
20:00 16.5° 1011.1 hPa 1.7 m/s 4.8 mm 16.2° 1009.1 hPa 3.9 m/s 22.4 mm 17.6° 1011.3 hPa 1.4 m/s 0.0 mm 16.3° 1011.4 hPa 1.4 m/s 15.8° 1010.8 hPa 1.7 m/s
23:00 15.8° 1011.2 hPa 1.4 m/s 0.0 mm 16.4° 1009.3 hPa 1.3 m/s 25.9 mm 15.8° 1011.6 hPa 1.3 m/s 0.0 mm 15.7° 1011.3 hPa 1.5 m/s 13.8° 1011.4 hPa 1.8 m/s
 07:26     19:30    Daglengte: 12:04 Woensdag 23 Sep
02:00 15.1° 1011.0 hPa 2.0 m/s 0.0 mm 15.0° 1009.1 hPa 5.5 m/s 34.8 mm 15.2° 1011.3 hPa 1.5 m/s 0.0 mm 15.1° 1011.2 hPa 1.6 m/s 14.3° 1010.9 hPa 2.6 m/s
05:00 15.1° 1010.3 hPa 2.2 m/s 63.8 mm 16.1° 1007.5 hPa 5.2 m/s 63.8 mm 14.9° 1010.8 hPa 1.6 m/s 14.1° 1010.2 hPa 2.4 m/s
08:00 14.9° 1010.1 hPa 2.2 m/s 76.7 mm 15.5° 1008.6 hPa 5.0 m/s 76.7 mm 14.8° 1010.3 hPa 1.7 m/s 13.8° 1010.7 hPa 1.4 m/s
11:00 18.0° 1009.3 hPa 3.0 m/s 28.5 mm 18.3° 1009.2 hPa 3.3 m/s 15.6° 1010.3 hPa 0.3 m/s 28.5 mm
14:00 20.0° 1008.7 hPa 4.0 m/s 28.7 mm 20.0° 1008.7 hPa 4.1 m/s 20.5° 1009.0 hPa 2.5 m/s 28.7 mm
17:00 18.3° 1007.9 hPa 3.1 m/s 29.0 mm 18.0° 1007.9 hPa 3.0 m/s 21.5° 1008.0 hPa 3.1 m/s 29.0 mm
20:00 16.0° 1007.2 hPa 2.0 m/s 29.1 mm 16.0° 1007.1 hPa 2.0 m/s 15.8° 1008.8 hPa 1.5 m/s 29.1 mm
23:00 15.4° 1007.9 hPa 2.1 m/s 31.7 mm 15.5° 1007.6 hPa 2.1 m/s 14.3° 1010.7 hPa 1.9 m/s 31.7 mm
 07:27     19:28    Daglengte: 12:01 Donderdag 24 Sep
02:00 14.9° 1008.3 hPa 2.2 m/s 34.5 mm 15.0° 1008.1 hPa 2.2 m/s 14.3° 1011.1 hPa 2.6 m/s 34.5 mm
05:00 14.0° 1009.5 hPa 2.4 m/s 35.9 mm 14.0° 1009.4 hPa 2.5 m/s 13.9° 1011.1 hPa 1.8 m/s 35.9 mm
08:00 13.1° 1010.7 hPa 2.8 m/s 38.7 mm 13.0° 1010.6 hPa 2.8 m/s 13.9° 1011.5 hPa 2.5 m/s 38.7 mm
11:00 14.5° 1010.2 hPa 2.7 m/s 41.3 mm 14.4° 1010.2 hPa 2.8 m/s 15.4° 1010.6 hPa 2.0 m/s 41.3 mm
14:00 15.8° 1009.8 hPa 2.7 m/s 42.7 mm 15.8° 1009.8 hPa 2.7 m/s 16.3° 1009.6 hPa 2.1 m/s 42.7 mm
17:00 14.1° 1008.5 hPa 2.4 m/s 46.2 mm 14.2° 1008.5 hPa 2.4 m/s 14.1° 1008.6 hPa 2.8 m/s 46.2 mm
20:00 12.6° 1007.3 hPa 2.1 m/s 50.3 mm 12.5° 1007.2 hPa 2.0 m/s 13.3° 1008.2 hPa 3.0 m/s 50.3 mm
23:00 12.1° 1008.0 hPa 2.2 m/s 50.8 mm 12.1° 1007.9 hPa 2.0 m/s 11.7° 1009.7 hPa 3.3 m/s 50.8 mm
 07:29     19:26    Daglengte: 11:57 Vrijdag 25 Sep
02:00 11.6° 1008.6 hPa 2.2 m/s 53.9 mm 11.7° 1008.5 hPa 2.1 m/s 10.5° 1010.1 hPa 3.8 m/s 53.9 mm
05:00 10.0° 1008.5 hPa 2.2 m/s 55.8 mm 10.2° 1008.5 hPa 2.2 m/s 7.9° 1009.6 hPa 2.5 m/s 55.8 mm
08:00 8.5° 1008.6 hPa 2.3 m/s 60.8 mm 8.7° 1008.4 hPa 2.2 m/s 6.8° 1010.8 hPa 3.0 m/s 60.8 mm
11:00 9.6° 1009.3 hPa 2.8 m/s 62.6 mm 9.8° 1009.1 hPa 2.8 m/s 7.0° 1011.2 hPa 3.5 m/s 62.6 mm
14:00 10.7° 1009.9 hPa 3.3 m/s 66.2 mm 10.9° 1009.8 hPa 3.3 m/s 8.0° 1011.3 hPa 3.9 m/s 66.2 mm
17:00 9.5° 1010.7 hPa 2.5 m/s 67.9 mm 9.5° 1010.6 hPa 2.4 m/s 9.4° 1011.5 hPa 3.9 m/s 67.9 mm
20:00 8.0° 1011.6 hPa 1.6 m/s 68.8 mm 8.1° 1011.5 hPa 1.5 m/s 7.0° 1012.6 hPa 2.4 m/s 68.8 mm
23:00 7.4° 1012.2 hPa 1.8 m/s 69.6 mm 7.5° 1012.1 hPa 1.6 m/s 6.8° 1013.1 hPa 3.1 m/s 69.6 mm
 07:30     19:24    Daglengte: 11:54 Zaterdag 26 Sep
02:00 6.9° 1012.6 hPa 2.0 m/s 72.3 mm 6.9° 1012.8 hPa 1.8 m/s 6.6° 1009.9 hPa 4.0 m/s 72.3 mm
05:00 6.5° 1012.5 hPa 1.6 m/s 76.4 mm 6.5° 1013.0 hPa 1.5 m/s 6.1° 1006.6 hPa 3.0 m/s 76.4 mm
08:00 6.1° 1012.5 hPa 1.2 m/s 79.8 mm 6.1° 1013.3 hPa 1.1 m/s 6.7° 1004.3 hPa 2.3 m/s 79.8 mm
11:00 7.9° 1012.0 hPa 2.1 m/s 83.9 mm 8.0° 1012.9 hPa 2.1 m/s 7.9° 1002.4 hPa 2.2 m/s 83.9 mm
14:00 9.7° 1011.5 hPa 2.9 m/s 90.1 mm 9.8° 1012.5 hPa 3.1 m/s 9.0° 1000.8 hPa 1.0 m/s 90.1 mm
17:00 8.9° 1012.7 hPa 1.9 m/s 97.2 mm 8.9° 1013.7 hPa 1.9 m/s 8.1° 1001.1 hPa 1.9 m/s 97.2 mm
20:00 8.0° 1014.0 hPa 0.7 m/s 99.2 mm 8.1° 1014.9 hPa 0.7 m/s 6.6° 1004.4 hPa 1.0 m/s 99.2 mm
23:00 7.7° 1015.0 hPa 0.9 m/s 99.9 mm 7.8° 1015.8 hPa 0.8 m/s 6.4° 1006.8 hPa 1.6 m/s 99.9 mm
 07:31     19:22    Daglengte: 11:51 Zondag 27 Sep
02:00 7.5° 1015.9 hPa 1.0 m/s 101.3 mm 7.6° 1016.7 hPa 0.9 m/s 5.9° 1007.3 hPa 2.3 m/s 101.3 mm
05:00 7.1° 1016.4 hPa 1.2 m/s 106.4 mm 7.2° 1017.2 hPa 1.1 m/s 5.8° 1007.6 hPa 2.6 m/s 106.4 mm
08:00 6.8° 1017.1 hPa 1.4 m/s 110.4 mm 6.9° 1017.8 hPa 1.3 m/s 5.7° 1009.0 hPa 2.2 m/s 110.4 mm
14:00 12.3° 1017.1 hPa 1.6 m/s 115.0 mm 12.8° 1017.7 hPa 1.6 m/s 7.2° 1010.6 hPa 2.1 m/s 115.0 mm
20:00 10.9° 1016.8 hPa 0.9 m/s 116.8 mm 11.4° 1017.1 hPa 0.9 m/s 4.8° 1014.0 hPa 1.1 m/s 116.8 mm
 07:32     19:20    Daglengte: 11:48 Maandag 28 Sep
02:00 9.6° 1018.1 hPa 1.0 m/s 117.2 mm 10.1° 1018.3 hPa 1.0 m/s 4.0° 1015.4 hPa 1.5 m/s 117.2 mm
08:00 9.7° 1018.6 hPa 1.3 m/s 117.2 mm 10.3° 1018.8 hPa 1.3 m/s 2.5° 1016.7 hPa 1.8 m/s 117.2 mm
14:00 14.7° 1018.3 hPa 2.7 m/s 117.4 mm 15.2° 1018.4 hPa 2.7 m/s 9.0° 1017.2 hPa 3.3 m/s 117.4 mm
20:00 12.4° 1017.9 hPa 1.7 m/s 118.1 mm 13.0° 1017.6 hPa 1.8 m/s 5.2° 1021.0 hPa 0.7 m/s 118.1 mm
 07:34     19:18    Daglengte: 11:44 Dinsdag 29 Sep
02:00 9.5° 1019.6 hPa 1.3 m/s 118.2 mm 10.0° 1019.3 hPa 1.4 m/s 4.0° 1023.5 hPa 0.1 m/s 118.2 mm
08:00 9.6° 1020.0 hPa 1.0 m/s 118.2 mm 10.0° 1019.6 hPa 1.0 m/s 4.9° 1024.4 hPa 1.1 m/s 118.2 mm
14:00 9.9° 1023.1 hPa 1.4 m/s 119.8 mm 9.9° 1023.1 hPa 1.4 m/s 119.8 mm
20:00 8.4° 1023.2 hPa 0.7 m/s 122.0 mm 8.4° 1023.2 hPa 0.7 m/s 122.0 mm
 07:35     19:16    Daglengte: 11:41 Woensdag 30 Sep
02:00 5.9° 1023.0 hPa 1.2 m/s 0.5 mm
08:00 5.4° 1022.3 hPa 1.0 m/s 0.5 mm
14:00 14.8° 1020.0 hPa 1.4 m/s 0.4 mm
20:00 9.7° 1020.3 hPa 1.0 m/s 0.8 mm
 07:36     19:14    Daglengte: 11:38 Donderdag 01 Okt
02:00 6.9° 1020.4 hPa 0.9 m/s 0.6 mm
08:00 6.0° 1019.8 hPa 0.7 m/s 0.6 mm
14:00 15.6° 1018.0 hPa 1.5 m/s 0.7 mm
20:00 8.7° 1018.8 hPa 1.5 m/s 0.6 mm
 07:38     19:12    Daglengte: 11:34 Vrijdag 02 Okt
02:00 6.2° 1019.5 hPa 1.1 m/s 0.0 mm
08:00 5.5° 1019.1 hPa 1.2 m/s 0.0 mm
14:00 16.9° 1017.1 hPa 1.1 m/s 0.0 mm
20:00 9.9° 1017.8 hPa 0.7 m/s 0.2 mm
 07:39     19:10    Daglengte: 11:31 Zaterdag 03 Okt
02:00 8.1° 1018.6 hPa 1.3 m/s 0.2 mm
08:00 7.7° 1018.4 hPa 1.1 m/s 0.3 mm
14:00 18.1° 1017.0 hPa 1.0 m/s 0.1 mm
20:00 11.4° 1017.6 hPa 0.4 m/s 0.2 mm
 07:40     19:09    Daglengte: 11:29 Zondag 04 Okt
02:00 9.3° 1018.5 hPa 1.3 m/s 0.6 mm
08:00 8.3° 1018.4 hPa 0.9 m/s 1.0 mm
14:00 18.3° 1017.4 hPa 1.2 m/s 0.6 mm
20:00 11.2° 1017.5 hPa 0.2 m/s 0.4 mm
 07:42     19:07    Daglengte: 11:25 Maandag 05 Okt
02:00 9.2° 1018.3 hPa 1.2 m/s 0.1 mm
FMI Hirlam - 7.5 km EWN WRFDA - 12 km DWD ICON - 7 km GFS - 25 km Basiskaart






























































Updatetijd (Europe/Amsterdam) Resolutie Lengte Stap
FMI Hirlam 01:45, 07:45, 13:45, 19:45 7.5 km 49h 1h
EWN WRFDA 03:45, 09:45, 15:45, 21:45 12 km 73h 1h
DWD ICON 06:15, 12:15, 18:15, 00:15 7 km 75h 1h
GFS 01:45, 07:45, 13:45, 19:45 25 km 237h 3h
30+ mm
25-30 mm
20-25 mm
15-20 mm
10-15 mm
6-10 mm
4-6 mm
2-4 mm
1-2 mm
0.5-1 mm
0.2-0.5 mm
0.1-0.2 mm
30+ mm
25-30 mm
20-25 mm
15-20 mm
10-15 mm
6-10 mm
4-6 mm
2-4 mm
1-2 mm
0.5-1 mm
0.2-0.5 mm
0.1-0.2 mm
Sneeuwval
Natte sneeuw
Hagel
Vorst
30+ mm
25-30 mm
20-25 mm
15-20 mm
10-15 mm
6-10 mm
4-6 mm
2-4 mm
1-2 mm
0.5-1 mm
0.2-0.5 mm
0.1-0.2 mm
Sneeuwval
Natte sneeuw
Hagel
Vorst
Onweer
50 mm
40 mm
30 mm
26 mm
22 mm
18 mm
14 mm
10 mm
9 mm
8 mm
7 mm
6 mm
5 mm
4.5 mm
4 mm
3.5 mm
3 mm
2.5 mm
2 mm
1.5 mm
1 mm
0.8 mm
0.6 mm
0.4 mm
0.2 mm
0.05 mm
35°
30°
25°
20°
15°
10°
-5°
-10°
-15°
-20°
-25°
-30°
-35°
33> m/s
29 m/s
25 m/s
21 m/s
17 m/s
14 m/s
11 m/s
8 m/s
5 m/s
3 m/s
0 m/s
2600 J/kg
2400 J/kg
2200 J/kg
2000 J/kg
1800 J/kg
1600 J/kg
1400 J/kg
1200 J/kg
1000 J/kg
800 J/kg
600 J/kg
400 J/kg
200 J/kg
70 dBZ
65 dBZ
60 dBZ
55 dBZ
50 dBZ
45 dBZ
40 dBZ
35 dBZ
30 dBZ
25 dBZ
20 dBZ
15 dBZ
10 dBZ
5 dBZ
-1 K
-2 K
-3 K
-4 K
-5 K
-6 K
-7 K
-8 K
-9 K
950 m²/s²
900 m²/s²
850 m²/s²
800 m²/s²
750 m²/s²
700 m²/s²
650 m²/s²
600 m²/s²
550 m²/s²
500 m²/s²
450 m²/s²
400 m²/s²
350 m²/s²
300 m²/s²
250 m²/s²
200 m²/s²
150 m²/s²
100 m²/s²
46 m/s
44 m/s
42 m/s
40 m/s
38 m/s
36 m/s
34 m/s
32 m/s
30 m/s
28 m/s
26 m/s
24 m/s
22 m/s
20 m/s
16 m/s
12 m/s
8 m/s
4 m/s
30 m/s
28 m/s
26 m/s
24 m/s
22 m/s
20 m/s
18 m/s
16 m/s
14 m/s
12 m/s
10 m/s
8 m/s
6 m/s
4 m/s
2 m/s
3.0
2.8
2.6
2.4
2.2
2.0
1.8
1.6
1.4
1.2
1.0
0.8
0.6
0.4
0.2
15
14
13
12
11
10
9
8
7
6
5
4
3
2
1
90%
80%
70%
60%
50%
40%
30%
20%
10%
42
40
38
36
34
32
30
28
26
24
22
20
18
16
14
12
90+ cm
80-90 cm
70-80 cm
60-70 cm
50-60 cm
40-50 cm
30-40 cm
20-30 cm
10-20 cm
1-10 cm
Sneeuwval
Natte sneeuw
Regen
>120 mm
115 mm
110 mm
105 mm
100 mm
95 mm
90 mm
85 mm
80 mm
75 mm
70 mm
65 mm
60 mm
55 mm
50 mm
45 mm
45 mm
40 mm
35 mm
30 mm
25 mm
20 mm
15 mm
10 mm
5 mm
0.1 mm
960 hPa
880 hPa
800 hPa
720 hPa